Location: ??????
(42.0089°N, 44.3281°E)
Time: 23:04:21
(UTC+00:00)

Cosmos 2251 Rocket - Pass Details

Date: 01 June 2022
Orbit: 764 x 791 km, 74.0° (Epoch: 03 July)

Event Time Altitude Azimuth Distance (km) Brightness Sun altitude
Rises 00:19:35 0° 319° (NW) 3,254 6.8 -11.2°
Reaches altitude 10° 00:23:21 10° 292° (WNW) 2,327 5.8 -10.7°
Maximum altitude 00:25:33 13° 267° (W) 2,142 5.4 -10.4°
Enters shadow 00:27:09 11° 248° (WSW) 2,241 5.3 -10.2°
